Location: Mat�lon
(46.2791°N, 7.1028°E)
Time: 17:24:04
(UTC+00:00)

Cosmos 494 Rocket - Pass Details

Date: 18 September 2020
Orbit: 741 x 771 km, 74.1° (Epoch: 30 October)

Event Time Altitude Azimuth Distance (km) Brightness Sun altitude
Rises 19:57:19 0° 337° (NNW) 3,244 8.1 -24.0°
Reaches altitude 10° 19:59:41 10° 337° (NNW) 2,317 7.2 -24.4°
Maximum altitude 20:04:58 84° 250° (WSW) 781 3.9 -25.1°
Enters shadow 20:05:39 68° 176° (S) 830 3.9 -25.2°
